Location: Trout Lake
(45.9980°N, 121.5270°W)
Time: 19:13:53
(UTC-08:00)

Cosmos 1782 - Pass Details

Date: 06 December 2023
Orbit: 515 x 525 km, 82.5° (Epoch: 22 February)

Event Time Altitude Azimuth Distance (km) Brightness Sun altitude
Rises 18:18:37 0° 198° (SSW) 2,659 6.7 -19.6°
Reaches altitude 10° 18:20:47 10° 203° (SSW) 1,775 5.9 -20.0°
Maximum altitude 18:24:37 54° 281° (WNW) 650 3.4 -20.6°
Enters shadow 18:27:50 14° 358° (N) 1,531 5.0 -21.2°
